When you browse on this site, cookies collect data to enhance your experience and personalize the content and advertising you see.
Visit our Privacy Policy to learn more. By continuing to use the site, you agree to this use of cookies and data.
  • In Spain
  • List of Countries
  • For 7 days
  • Water Temperature
  • Weather Map
  • Weather Widgets
  • user-avatar
    Login

    Hourly Weather Taldy Kurgan

    Today, 22 November, Friday

    Time Temperature Precipitation Wind Pressure Humidity
    00:00 -13°C° 0 mm 1 mps 723 mmHg 82%
    01:00 -13°C° 0 mm 1 mps 723 mmHg 82%
    02:00 -13°C° 0 mm 1 mps 723 mmHg 82%
    03:00 -13°C° 0 mm 1 mps 723 mmHg 80%
    04:00 -13°C° 0 mm 1 mps 724 mmHg 78%
    05:00 -13°C° 0 mm 1 mps 724 mmHg 76%
    06:00 -12°C° 0 mm 1 mps 724 mmHg 74%
    07:00 -12°C° 0 mm 1 mps 724 mmHg 71%
    08:00 -11°C° 0 mm 1 mps 724 mmHg 69%
    09:00 -10°C° 0 mm 1 mps 724 mmHg 64%
    10:00 -8°C° 0 mm 1 mps 724 mmHg 60%
    11:00 -7°C° 0 mm 2 mps 725 mmHg 56%
    12:00 -7°C° 0 mm 2 mps 724 mmHg 57%
    13:00 -7°C° 0 mm 2 mps 724 mmHg 58%
    14:00 -7°C° 0 mm 2 mps 724 mmHg 59%
    15:00 -8°C° 0 mm 2 mps 724 mmHg 64%
    16:00 -10°C° 0 mm 2 mps 725 mmHg 68%
    17:00 -10°C° 0 mm 1 mps 725 mmHg 72%
    18:00 -10°C° 0 mm 1 mps 725 mmHg 71%
    19:00 -10°C° 0 mm 1 mps 725 mmHg 70%
    20:00 -10°C° 0 mm 1 mps 725 mmHg 70%
    21:00 -10°C° 0 mm 1 mps 725 mmHg 67%
    22:00 -12°C° 0 mm 2 mps 725 mmHg 65%
    23:00 -10°C° 0 mm 2 mps 725 mmHg 63%

    Tomorrow, 23 November, Saturday

    Time Temperature Precipitation Wind Pressure Humidity
    00:00 -10°C° 0 mm 2 mps 725 mmHg 61%
    01:00 -10°C° 0 mm 2 mps 725 mmHg 59%
    02:00 -10°C° 0 mm 2 mps 725 mmHg 57%
    03:00 -10°C° 0 mm 2 mps 725 mmHg 55%
    04:00 -9°C° 0 mm 1 mps 724 mmHg 53%
    05:00 -9°C° 0 mm 1 mps 724 mmHg 51%
    06:00 -9°C° 0 mm 1 mps 724 mmHg 50%
    07:00 -8°C° 0 mm 1 mps 724 mmHg 49%
    08:00 -7°C° 0 mm 1 mps 724 mmHg 48%
    09:00 -6°C° 0 mm 1 mps 724 mmHg 47%
    10:00 -3°C° 0 mm 1 mps 724 mmHg 46%
    11:00 -1°C° 0 mm 1 mps 723 mmHg 45%
    12:00 -1°C° 0 mm 1 mps 723 mmHg 46%
    13:00 0°C° 0 mm 1 mps 722 mmHg 46%
    14:00 0°C° 0 mm 1 mps 722 mmHg 47%
    15:00 -1°C° 0 mm 1 mps 722 mmHg 50%
    16:00 -3°C° 0 mm 0 mps 721 mmHg 53%
    17:00 -4°C° 0 mm 0 mps 721 mmHg 55%
    18:00 -4°C° 0 mm 0 mps 721 mmHg 55%
    19:00 -4°C° 0 mm 0 mps 721 mmHg 54%
    20:00 -4°C° 0 mm 0 mps 721 mmHg 54%
    21:00 -3°C° 0 mm 0 mps 720 mmHg 55%
    22:00 -3°C° 0 mm 0 mps 720 mmHg 55%
    23:00 -2°C° 0 mm 0 mps 720 mmHg 56%

    Day after tomorrow, 24 November, Sunday

    Time Temperature Precipitation Wind Pressure Humidity
    00:00 -2°C° 0.1 mm 0 mps 720 mmHg 57%
    01:00 -2°C° 0.1 mm 0 mps 721 mmHg 57%
    02:00 -1°C° 0.1 mm 0 mps 721 mmHg 58%
    03:00 -1°C° 0.1 mm 0 mps 721 mmHg 62%
    04:00 -1°C° 0.1 mm 0 mps 721 mmHg 67%
    05:00 -1°C° 0.1 mm 0 mps 721 mmHg 72%
    06:00 -1°C° 0 mm 0 mps 721 mmHg 72%
    07:00 -1°C° 0 mm 0 mps 721 mmHg 72%
    08:00 -1°C° 0 mm 0 mps 721 mmHg 71%
    09:00 0°C° 0 mm 0 mps 721 mmHg 69%
    10:00 +1°C° 0 mm 0 mps 721 mmHg 67%
    11:00 +2°C° 0 mm 0 mps 721 mmHg 65%
    12:00 +2°C° 0 mm 0 mps 721 mmHg 66%
    13:00 +2°C° 0 mm 0 mps 721 mmHg 67%
    14:00 +2°C° 0 mm 0 mps 721 mmHg 69%
    15:00 +1°C° 0 mm 0 mps 720 mmHg 72%
    16:00 0°C° 0 mm 0 mps 720 mmHg 75%
    17:00 -1°C° 0 mm 0 mps 720 mmHg 79%
    18:00 -1°C° 0 mm 0 mps 720 mmHg 79%
    19:00 -2°C° 0 mm 0 mps 720 mmHg 80%
    20:00 -2°C° 0 mm 0 mps 720 mmHg 80%
    21:00 -2°C° 0 mm 0 mps 720 mmHg 80%
    22:00 -1°C° 0 mm 1 mps 720 mmHg 80%
    23:00 -1°C° 0 mm 1 mps 720 mmHg 80%

    25 November, Monday

    Time Temperature Precipitation Wind Pressure Humidity
    00:00 -2°C° 0 mm 0 mps 720 mmHg 81%
    01:00 -2°C° 0 mm 0 mps 720 mmHg 81%
    02:00 -2°C° 0 mm 0 mps 720 mmHg 82%
    03:00 -2°C° 0 mm 0 mps 720 mmHg 83%
    04:00 -2°C° 0 mm 0 mps 720 mmHg 84%
    05:00 -2°C° 0 mm 0 mps 720 mmHg 85%
    06:00 -2°C° 0.4 mm 0 mps 721 mmHg 89%
    07:00 -2°C° 0.4 mm 0 mps 722 mmHg 93%
    08:00 0°C° 0.4 mm 1 mps 722 mmHg 96%
    09:00 0°C° 0.8 mm 1 mps 723 mmHg 97%
    10:00 0°C° 0.8 mm 1 mps 723 mmHg 97%
    11:00 -1°C° 0.8 mm 2 mps 724 mmHg 97%
    12:00 -1°C° 0.4 mm 2 mps 724 mmHg 96%
    13:00 -1°C° 0.4 mm 2 mps 724 mmHg 96%
    14:00 -1°C° 0.4 mm 2 mps 724 mmHg 96%
    15:00 -2°C° 0.1 mm 2 mps 724 mmHg 95%
    16:00 -2°C° 0.1 mm 2 mps 724 mmHg 94%
    17:00 -3°C° 0.1 mm 2 mps 724 mmHg 94%
    18:00 -4°C° 0 mm 2 mps 724 mmHg 93%
    19:00 -3°C° 0 mm 1 mps 724 mmHg 92%
    20:00 -4°C° 0 mm 1 mps 724 mmHg 91%
    21:00 -4°C° 0 mm 1 mps 724 mmHg 91%
    22:00 -4°C° 0 mm 1 mps 724 mmHg 90%
    23:00 -4°C° 0 mm 1 mps 724 mmHg 90%

    26 November, Tuesday

    Time Temperature Precipitation Wind Pressure Humidity
    00:00 -4°C° 0 mm 1 mps 724 mmHg 89%
    01:00 -6°C° 0 mm 1 mps 724 mmHg 88%
    02:00 -6°C° 0 mm 1 mps 724 mmHg 87%
    03:00 -6°C° 0 mm 1 mps 724 mmHg 86%
    04:00 -6°C° 0 mm 1 mps 724 mmHg 84%
    05:00 -6°C° 0 mm 1 mps 723 mmHg 83%
    06:00 -6°C° 0 mm 1 mps 723 mmHg 81%
    07:00 -6°C° 0 mm 1 mps 723 mmHg 79%
    08:00 -6°C° 0 mm 1 mps 723 mmHg 77%
    09:00 -3°C° 0 mm 1 mps 723 mmHg 74%
    10:00 -2°C° 0 mm 1 mps 723 mmHg 72%
    11:00 0°C° 0 mm 1 mps 723 mmHg 69%
    12:00 0°C° 0 mm 1 mps 723 mmHg 71%
    13:00 0°C° 0 mm 1 mps 722 mmHg 73%
    14:00 0°C° 0 mm 1 mps 722 mmHg 74%
    15:00 -1°C° 0 mm 1 mps 722 mmHg 76%
    16:00 -2°C° 0 mm 1 mps 722 mmHg 77%
    17:00 -4°C° 0 mm 1 mps 721 mmHg 78%
    18:00 -4°C° 0 mm 1 mps 721 mmHg 76%
    19:00 -4°C° 0 mm 1 mps 722 mmHg 75%
    20:00 -4°C° 0 mm 1 mps 722 mmHg 73%
    21:00 -4°C° 0 mm 1 mps 721 mmHg 72%
    22:00 -4°C° 0 mm 1 mps 721 mmHg 72%
    23:00 -4°C° 0 mm 1 mps 721 mmHg 71%

    27 November, Wednesday

    Time Temperature Precipitation Wind Pressure Humidity
    00:00 -4°C° 0 mm 1 mps 721 mmHg 70%
    01:00 -4°C° 0 mm 1 mps 721 mmHg 68%
    02:00 -4°C° 0 mm 1 mps 721 mmHg 67%
    03:00 -4°C° 0 mm 1 mps 721 mmHg 66%
    04:00 -4°C° 0 mm 1 mps 721 mmHg 65%
    05:00 -6°C° 0 mm 1 mps 722 mmHg 64%
    06:00 -4°C° 0 mm 1 mps 722 mmHg 64%
    07:00 -4°C° 0 mm 1 mps 722 mmHg 64%
    08:00 -4°C° 0 mm 1 mps 722 mmHg 63%
    09:00 -3°C° 0 mm 1 mps 722 mmHg 63%
    10:00 -1°C° 0 mm 1 mps 722 mmHg 62%
    11:00 0°C° 0 mm 1 mps 723 mmHg 62%
    12:00 0°C° 0 mm 1 mps 722 mmHg 65%
    13:00 +1°C° 0 mm 1 mps 722 mmHg 69%
    14:00 +1°C° 0 mm 1 mps 722 mmHg 72%
    15:00 -1°C° 0 mm 1 mps 722 mmHg 73%
    16:00 -2°C° 0 mm 1 mps 722 mmHg 75%
    17:00 -3°C° 0 mm 1 mps 722 mmHg 76%
    18:00 -4°C° 0 mm 1 mps 722 mmHg 74%
    19:00 -4°C° 0 mm 1 mps 722 mmHg 73%
    20:00 -4°C° 0 mm 1 mps 723 mmHg 71%
    21:00 -4°C° 0 mm 1 mps 723 mmHg 70%
    22:00 -4°C° 0 mm 1 mps 722 mmHg 68%
    23:00 -4°C° 0 mm 1 mps 722 mmHg 66%
    Show more